Weather History for Fort Myers, FL

Change the Weather History Date:

Saturday, August 24, 2013

  Actual Average Record
Temperature  
Mean Temperature 29 °C 28 °C  
Max Temperature 34 °C 33 °C 36 °C (1942)
Min Temperature 24 °C 24 °C 18 °C (1957)
Degree Days  
Heating Degree Days 0 0  
Month to date heating degree days 0 0  
Since 1 June heating degree days 0 0  
Since 1 July heating degree days 0 0  
Cooling Degree Days 19 18  
Month to date cooling degree days 437 432  
Year to date cooling degree days 2602 2587  
Since 1 June cooling degree days 1464 1521  
Growing Degree Days 33 (Base 50)    
Moisture  
Dew Point 23 °C    
Average Humidity 84    
Maximum Humidity 100    
Minimum Humidity 52    
Precipitation  
Precipitation 13.46 mm 8.64 mm 18.97 mm (1913)
Month to date precipitation 7.24 7.80  
Year to date precipitation 37.78 38.73  
Sea Level Pressure  
Sea Level Pressure 1017 hPa    
Wind  
Wind Speed 7 km/h (ESE)    
Max Wind Speed 32 km/h    
Max Gust Speed 45 km/h    
Visibility 13 kilometers    
Events Rain , Thunderstorm    
T = Trace of Precipitation, MM = Missing Value Source: NWS Daily Summary

Daily Weather History Graph

Daily Weather History Graph

Search for Another Location

Airport:

Trip Planner

Search our weather history database for the weather conditions in past years. The results will help you decide how hot, cold, wet, or windy it might be!

Date:

Astronomy

Aug. 24, 2013 Rise Set
Actual Time 7:03 AM EDT 7:55 PM EDT
Civil Twilight 6:39 AM EDT 8:19 PM EDT
Nautical Twilight 6:11 AM EDT 8:47 PM EDT
Astronomical Twilight 5:43 AM EDT 9:15 PM EDT
Moon 10:19 PM EDT (8/24) 10:33 AM EDT (8/24)
Length of Visible Light 13h 39m
Length of Day
12h 51m
Waning Gibbous, 84% of the Moon is Illuminated
Aug 24
Waning Gibbous
Aug 28
Last Quarter
Sep 5
New
Sep 12
First Quarter
Sep 19
Full

Hourly Weather History & Observations

Time (EDT) Temp. Heat Index Dew Point Humidity Pressure Visibility Wind Dir Wind Speed Gust Speed Precip Events Conditions
12:53 AM 25.0 °C - 23.9 °C 94% 1016.5 hPa 16.1 km Calm Calm - N/A   Clear
1:53 AM 25.0 °C - 23.9 °C 94% 1016.5 hPa 16.1 km East 7.4 km/h / 2.1 m/s - N/A   Clear
2:53 AM 24.4 °C - 23.9 °C 97% 1016.0 hPa 16.1 km ESE 5.6 km/h / 1.5 m/s - N/A   Clear
3:53 AM 24.4 °C - 23.9 °C 97% 1015.9 hPa 16.1 km Calm Calm - N/A   Clear
4:53 AM 24.4 °C - 23.9 °C 97% 1015.6 hPa 16.1 km ENE 5.6 km/h / 1.5 m/s - N/A   Clear
5:53 AM 24.4 °C - 23.9 °C 97% 1016.1 hPa 16.1 km Calm Calm - N/A   Clear
6:53 AM 24.4 °C - 23.9 °C 97% 1016.4 hPa 16.1 km ENE 7.4 km/h / 2.1 m/s - N/A   Clear
7:53 AM 25.0 °C - 24.4 °C 96% 1017.3 hPa 14.5 km East 7.4 km/h / 2.1 m/s - N/A   Clear
8:53 AM 26.7 °C 29.9 °C 25.0 °C 90% 1017.5 hPa 16.1 km ESE 9.3 km/h / 2.6 m/s - N/A   Clear
9:53 AM 28.9 °C 34.3 °C 25.0 °C 79% 1018.3 hPa 16.1 km SE 9.3 km/h / 2.6 m/s - N/A   Clear
10:53 AM 30.0 °C 35.0 °C 23.9 °C 70% 1018.7 hPa 16.1 km Variable 5.6 km/h / 1.5 m/s - N/A   Partly Cloudy
11:53 AM 30.0 °C 33.4 °C 22.2 °C 63% 1018.5 hPa 16.1 km Calm Calm - N/A   Partly Cloudy
12:53 PM 31.7 °C 36.1 °C 22.8 °C 59% 1018.1 hPa 16.1 km SW 5.6 km/h / 1.5 m/s - N/A   Scattered Clouds
1:53 PM 32.8 °C 36.8 °C 22.2 °C 53% 1017.4 hPa 16.1 km Calm Calm - N/A   Clear
2:28 PM 33.0 °C 36.9 °C 22.0 °C 52% 1016.8 hPa 16.1 km Variable 9.3 km/h / 2.6 m/s - N/A Thunderstorm Clear
2:43 PM 33.0 °C 36.0 °C 21.0 °C 49% 1016.8 hPa 16.1 km Calm Calm - N/A   Clear
2:53 PM 32.8 °C 36.8 °C 22.2 °C 53% 1017.0 hPa 16.1 km ESE 9.3 km/h / 2.6 m/s - N/A   Scattered Clouds
3:53 PM 32.8 °C 36.8 °C 22.2 °C 53% 1016.0 hPa 16.1 km East 9.3 km/h / 2.6 m/s - N/A   Mostly Cloudy
4:53 PM 33.3 °C 36.9 °C 21.7 °C 50% 1015.9 hPa 16.1 km NE 9.3 km/h / 2.6 m/s - N/A Thunderstorm Mostly Cloudy
5:50 PM 25.0 °C - 22.0 °C 83% 1016.5 hPa 6.4 km South 24.1 km/h / 6.7 m/s 44.4 km/h / 12.3 m/s 0.0 mm Rain , Thunderstorm Light Thunderstorms and Rain
5:53 PM 24.4 °C - 22.8 °C 91% 1016.7 hPa 4.8 km SSW 22.2 km/h / 6.2 m/s 37.0 km/h / 10.3 m/s 0.0 mm Rain , Thunderstorm Light Thunderstorms and Rain
6:01 PM 24.0 °C - 22.0 °C 89% 1016.1 hPa 2.8 km SSE 18.5 km/h / 5.1 m/s 25.9 km/h / 7.2 m/s 0.5 mm Rain , Thunderstorm Heavy Thunderstorms and Rain
6:15 PM 24.0 °C - 22.0 °C 89% 1016.1 hPa 1.2 km WSW 16.7 km/h / 4.6 m/s - 4.1 mm Rain , Thunderstorm Heavy Thunderstorms and Rain
6:23 PM 24.0 °C - 22.0 °C 89% 1016.5 hPa 2.8 km SSW 5.6 km/h / 1.5 m/s - 4.8 mm Rain , Thunderstorm Thunderstorms and Rain
6:29 PM 24.0 °C - 22.0 °C 89% 1016.5 hPa 4.8 km Calm Calm - 5.1 mm Rain , Thunderstorm Light Thunderstorms and Rain
6:40 PM 24.0 °C - 22.0 °C 89% 1016.8 hPa 9.7 km SW 7.4 km/h / 2.1 m/s - 5.1 mm Rain , Thunderstorm Light Rain
6:53 PM 24.4 °C - 23.3 °C 94% 1016.6 hPa 12.9 km SSW 7.4 km/h / 2.1 m/s - 5.1 mm Rain , Thunderstorm Light Rain
7:44 PM 24.0 °C - 23.0 °C 94% 1017.8 hPa 2.8 km East 7.4 km/h / 2.1 m/s - 1.3 mm Rain , Thunderstorm Heavy Rain
7:53 PM 23.9 °C - 22.8 °C 94% 1017.9 hPa 4.0 km ESE 13.0 km/h / 3.6 m/s - 5.1 mm Rain , Thunderstorm Light Rain
7:56 PM 24.0 °C - 23.0 °C 94% 1017.8 hPa 9.7 km ESE 9.3 km/h / 2.6 m/s - 0.0 mm Rain Light Rain
8:04 PM 24.0 °C - 23.0 °C 94% 1017.8 hPa 12.9 km ESE 11.1 km/h / 3.1 m/s - 0.5 mm Rain Light Rain
8:53 PM 24.4 °C - 22.8 °C 91% 1019.2 hPa 16.1 km ENE 5.6 km/h / 1.5 m/s - 0.8 mm   Overcast
9:53 PM 24.4 °C - 23.3 °C 94% 1019.8 hPa 16.1 km ENE 9.3 km/h / 2.6 m/s - N/A   Mostly Cloudy
10:20 PM 24.0 °C - 23.0 °C 94% 1020.2 hPa 16.1 km ENE 11.1 km/h / 3.1 m/s - N/A   Overcast
10:29 PM 24.0 °C - 23.0 °C 94% 1020.2 hPa 16.1 km NE 11.1 km/h / 3.1 m/s - N/A Thunderstorm Overcast
10:53 PM 23.9 °C - 23.3 °C 96% 1020.5 hPa 12.9 km ENE 11.1 km/h / 3.1 m/s - 0.3 mm Rain , Thunderstorm Light Thunderstorms and Rain
11:09 PM 24.0 °C - 23.0 °C 94% 1020.2 hPa 14.5 km ESE 5.6 km/h / 1.5 m/s - 0.3 mm Rain , Thunderstorm Light Rain
11:38 PM 24.0 °C - 23.0 °C 94% 1019.2 hPa 9.7 km Calm Calm - 1.3 mm Rain Light Rain
11:53 PM 23.9 °C - 23.3 °C 96% 1019.3 hPa 14.5 km SE 7.4 km/h / 2.1 m/s - 1.8 mm Rain Light Rain